TimeEST,TemperatureF,Dew PointF,Humidity,Sea Level PressureIn,VisibilityMPH,Wind Direction,Wind SpeedMPH,Gust SpeedMPH,PrecipitationIn,Events,Conditions,WindDirDegrees,DateUTC
12:56 AM,30.9,23.0,72,30.22,10.0,West,3.5,-,N/A,,Overcast,260,2013-01-06 05:56:00
1:56 AM,32.0,24.1,73,30.21,10.0,WSW,4.6,-,N/A,,Overcast,240,2013-01-06 06:56:00
2:56 AM,33.1,24.1,70,30.19,10.0,Calm,Calm,-,N/A,,Overcast,0,2013-01-06 07:56:00
3:56 AM,34.0,25.0,70,30.15,10.0,WSW,4.6,-,N/A,,Overcast,240,2013-01-06 08:56:00
4:37 AM,33.8,26.6,75,30.14,2.5,SW,10.4,-,0.00,Snow,Light Snow,220,2013-01-06 09:37:00
4:56 AM,33.1,28.0,82,30.14,2.5,WSW,8.1,-,0.00,Snow,Light Snow,240,2013-01-06 09:56:00
5:06 AM,33.8,28.4,81,30.13,3.0,WSW,6.9,-,0.00,Snow,Light Snow,240,2013-01-06 10:06:00
5:34 AM,33.8,28.4,81,30.13,2.0,SW,8.1,-,0.00,Snow,Light Snow,230,2013-01-06 10:34:00
5:56 AM,33.1,28.9,85,30.12,2.5,WSW,4.6,-,0.00,Snow,Light Snow,250,2013-01-06 10:56:00
6:33 AM,33.8,30.2,87,30.12,2.5,SW,3.5,-,0.00,,Overcast,220,2013-01-06 11:33:00
6:53 AM,33.8,30.2,87,30.11,1.5,SSW,5.8,-,0.00,,Overcast,210,2013-01-06 11:53:00
6:56 AM,33.1,30.0,89,30.11,1.5,SSW,4.6,-,0.00,,Overcast,210,2013-01-06 11:56:00
7:04 AM,33.8,30.2,87,30.11,1.0,Calm,Calm,-,N/A,,Overcast,0,2013-01-06 12:04:00
7:56 AM,33.1,30.9,92,30.11,1.5,Calm,Calm,-,N/A,,Overcast,0,2013-01-06 12:56:00
8:56 AM,35.1,32.0,89,30.10,2.0,Calm,Calm,-,N/A,,Overcast,0,2013-01-06 13:56:00
9:32 AM,37.4,33.8,87,30.09,5.0,WSW,8.1,-,N/A,,Mostly Cloudy,240,2013-01-06 14:32:00
9:56 AM,37.0,33.1,86,30.10,6.0,WSW,9.2,-,N/A,,Mostly Cloudy,240,2013-01-06 14:56:00
10:56 AM,39.9,33.1,77,30.07,10.0,SW,9.2,-,N/A,,Mostly Cloudy,220,2013-01-06 15:56:00
11:56 AM,42.1,32.0,67,30.02,10.0,WSW,5.8,-,N/A,,Scattered Clouds,240,2013-01-06 16:56:00
12:56 PM,44.1,30.0,58,29.99,10.0,WSW,10.4,-,N/A,,Partly Cloudy,250,2013-01-06 17:56:00
1:56 PM,44.1,30.9,60,29.98,10.0,SSW,6.9,-,N/A,,Partly Cloudy,200,2013-01-06 18:56:00
2:56 PM,43.0,30.9,62,29.97,10.0,South,8.1,-,N/A,,Scattered Clouds,190,2013-01-06 19:56:00
3:56 PM,42.1,30.0,62,29.96,10.0,SW,6.9,-,N/A,,Partly Cloudy,220,2013-01-06 20:56:00
4:56 PM,39.0,28.9,67,29.97,10.0,SW,5.8,-,N/A,,Scattered Clouds,230,2013-01-06 21:56:00
5:56 PM,39.0,30.9,73,29.99,10.0,SSW,6.9,-,N/A,,Scattered Clouds,200,2013-01-06 22:56:00
6:56 PM,34.0,28.0,79,29.99,9.0,WSW,5.8,-,N/A,,Mostly Cloudy,250,2013-01-06 23:56:00
7:56 PM,36.0,30.0,79,30.00,9.0,West,4.6,-,N/A,,Mostly Cloudy,280,2013-01-07 00:56:00
8:56 PM,35.1,28.9,78,30.01,10.0,West,5.8,-,N/A,,Mostly Cloudy,260,2013-01-07 01:56:00
9:56 PM,35.1,28.0,76,30.01,10.0,WSW,4.6,-,N/A,,Mostly Cloudy,250,2013-01-07 02:56:00
10:56 PM,36.0,27.0,70,30.01,10.0,West,4.6,-,N/A,,Scattered Clouds,260,2013-01-07 03:56:00
11:56 PM,30.9,24.1,76,30.02,10.0,West,3.5,-,N/A,,Scattered Clouds,280,2013-01-07 04:56:00